TimeAKDT,TemperatureF,Dew PointF,Humidity,Sea Level PressureIn,VisibilityMPH,Wind Direction,Wind SpeedMPH,Gust SpeedMPH,PrecipitationIn,Events,Conditions,WindDirDegrees,DateUTC
12:53 AM,57.0,48.9,74,29.90,10.0,SSW,29.9,39.1,N/A,,Overcast,210,2012-09-04 08:53:00
1:53 AM,57.0,48.9,74,29.89,10.0,SSW,25.3,36.8,N/A,,Overcast,200,2012-09-04 09:53:00
2:53 AM,55.9,48.9,77,29.90,10.0,SSW,24.2,39.1,N/A,,Overcast,200,2012-09-04 10:53:00
3:53 AM,55.9,48.9,77,29.88,10.0,SSW,27.6,39.1,N/A,,Mostly Cloudy,200,2012-09-04 11:53:00
4:53 AM,55.9,48.9,77,29.90,10.0,SSW,25.3,39.1,N/A,,Overcast,210,2012-09-04 12:53:00
5:53 AM,55.9,50.0,80,29.94,10.0,SSW,20.7,32.2,N/A,,Overcast,200,2012-09-04 13:53:00
6:53 AM,55.0,50.0,83,29.97,10.0,SSW,24.2,36.8,0.00,Rain,Light Rain,200,2012-09-04 14:53:00
7:53 AM,55.0,51.1,86,29.99,10.0,SSW,24.2,29.9,0.00,Rain,Light Rain,200,2012-09-04 15:53:00
8:53 AM,55.9,48.9,77,30.01,10.0,SSW,20.7,33.4,0.01,,Overcast,200,2012-09-04 16:53:00
9:53 AM,57.0,48.0,72,30.03,10.0,SSW,24.2,32.2,N/A,,Mostly Cloudy,200,2012-09-04 17:53:00
10:53 AM,57.9,45.0,62,30.06,10.0,SSW,26.5,35.7,N/A,,Clear,200,2012-09-04 18:53:00
11:53 AM,57.9,44.1,60,30.09,10.0,SSW,23.0,31.1,N/A,,Scattered Clouds,200,2012-09-04 19:53:00
12:53 PM,60.1,44.1,55,30.11,10.0,SSW,24.2,29.9,N/A,,Mostly Cloudy,200,2012-09-04 20:53:00
1:53 PM,59.0,44.1,58,30.12,10.0,SSW,20.7,32.2,N/A,,Overcast,200,2012-09-04 21:53:00
2:53 PM,60.1,43.0,53,30.14,10.0,SSW,23.0,31.1,N/A,,Overcast,200,2012-09-04 22:53:00
3:53 PM,57.0,43.0,59,30.13,10.0,SSW,24.2,29.9,N/A,,Overcast,200,2012-09-04 23:53:00
4:53 PM,57.0,43.0,59,30.15,10.0,SSW,16.1,28.8,N/A,,Overcast,200,2012-09-05 00:53:00
5:53 PM,57.0,43.0,59,30.17,10.0,SSW,19.6,27.6,N/A,,Overcast,200,2012-09-05 01:53:00
6:53 PM,57.0,43.0,59,30.17,10.0,SSW,13.8,24.2,N/A,,Overcast,200,2012-09-05 02:53:00
7:53 PM,55.9,43.0,62,30.17,10.0,SSW,12.7,23.0,N/A,,Overcast,200,2012-09-05 03:53:00
8:53 PM,55.9,42.1,60,30.19,10.0,SSW,16.1,25.3,N/A,,Overcast,200,2012-09-05 04:53:00
9:53 PM,55.0,42.1,62,30.19,10.0,SSW,16.1,-,N/A,,Overcast,200,2012-09-05 05:53:00
10:53 PM,55.0,42.1,62,30.19,10.0,SSW,13.8,-,N/A,,Overcast,200,2012-09-05 06:53:00
11:53 PM,55.0,42.1,62,30.20,10.0,SSW,12.7,21.9,N/A,,Overcast,200,2012-09-05 07:53:00